TimeEDT,TemperatureF,Dew PointF,Humidity,Sea Level PressureIn,VisibilityMPH,Wind Direction,Wind SpeedMPH,Gust SpeedMPH,PrecipitationIn,Events,Conditions,WindDirDegrees,DateUTC
12:15 AM,57.2,55.4,94,30.02,10.0,Calm,Calm,-,N/A,,Scattered Clouds,0,2013-03-20 04:15:00
12:35 AM,55.4,55.4,100,30.00,10.0,Calm,Calm,-,N/A,,Clear,0,2013-03-20 04:35:00
12:55 AM,55.4,55.4,100,30.00,10.0,Calm,Calm,-,N/A,,Clear,0,2013-03-20 04:55:00
1:15 AM,55.4,53.6,94,29.99,9.0,Calm,Calm,-,N/A,,Partly Cloudy,0,2013-03-20 05:15:00
1:35 AM,53.6,53.6,100,30.00,10.0,Calm,Calm,-,N/A,,Clear,0,2013-03-20 05:35:00
1:55 AM,53.6,53.6,100,29.99,8.0,Calm,Calm,-,N/A,,Partly Cloudy,0,2013-03-20 05:55:00
2:15 AM,53.6,53.6,100,29.99,6.0,Calm,Calm,-,N/A,,Mostly Cloudy,0,2013-03-20 06:15:00
2:35 AM,53.6,53.6,100,30.00,10.0,Calm,Calm,-,N/A,,Overcast,0,2013-03-20 06:35:00
2:55 AM,55.4,55.4,100,30.00,10.0,Calm,Calm,-,N/A,,Mostly Cloudy,0,2013-03-20 06:55:00
3:15 AM,55.4,53.6,94,30.00,10.0,Calm,Calm,-,N/A,,Scattered Clouds,0,2013-03-20 07:15:00
3:35 AM,55.4,53.6,94,29.99,10.0,Calm,Calm,-,N/A,,Partly Cloudy,0,2013-03-20 07:35:00
3:55 AM,53.6,51.8,94,29.99,10.0,Calm,Calm,-,N/A,,Partly Cloudy,0,2013-03-20 07:55:00
4:15 AM,53.6,53.6,100,29.98,10.0,Calm,Calm,-,N/A,,Mostly Cloudy,0,2013-03-20 08:15:00
4:35 AM,55.4,51.8,88,29.97,10.0,Calm,Calm,-,N/A,,Mostly Cloudy,0,2013-03-20 08:35:00
4:55 AM,55.4,50.0,82,29.98,10.0,Calm,Calm,-,N/A,,Overcast,0,2013-03-20 08:55:00
5:15 AM,55.4,50.0,82,29.98,10.0,Calm,Calm,-,N/A,,Overcast,0,2013-03-20 09:15:00
5:35 AM,55.4,50.0,82,29.97,10.0,Calm,Calm,-,N/A,,Mostly Cloudy,0,2013-03-20 09:35:00
5:55 AM,53.6,48.2,82,29.98,10.0,Calm,Calm,-,N/A,,Partly Cloudy,0,2013-03-20 09:55:00
6:15 AM,53.6,48.2,82,29.98,10.0,Calm,Calm,-,N/A,,Partly Cloudy,0,2013-03-20 10:15:00
6:35 AM,53.6,48.2,82,29.97,10.0,Calm,Calm,-,N/A,,Clear,0,2013-03-20 10:35:00
6:50 AM,53.6,48.2,82,29.97,7.0,North,4.6,-,N/A,,Clear,10,2013-03-20 10:50:00
7:50 AM,51.8,48.2,88,29.98,10.0,North,5.8,-,N/A,,Clear,10,2013-03-20 11:50:00
8:50 AM,55.4,48.2,77,30.01,10.0,NNW,5.8,-,N/A,,Mostly Cloudy,340,2013-03-20 12:50:00
9:50 AM,60.8,48.2,63,30.02,10.0,North,11.5,-,N/A,,Mostly Cloudy,10,2013-03-20 13:50:00
10:50 AM,62.6,48.2,59,30.03,10.0,North,9.2,-,N/A,,Mostly Cloudy,10,2013-03-20 14:50:00
11:50 AM,62.6,51.8,68,30.03,10.0,NNE,8.1,-,N/A,,Scattered Clouds,20,2013-03-20 15:50:00
12:50 PM,66.2,50.0,56,30.01,10.0,NNE,11.5,-,N/A,,Scattered Clouds,30,2013-03-20 16:50:00
1:50 PM,64.4,50.0,59,29.98,7.0,NNE,20.7,-,N/A,,Mostly Cloudy,20,2013-03-20 17:50:00
2:50 PM,66.2,51.8,60,29.92,7.0,NE,11.5,-,N/A,,Scattered Clouds,40,2013-03-20 18:50:00
4:50 PM,62.6,53.6,72,29.89,5.0,NNE,8.1,-,N/A,Rain,Light Rain,20,2013-03-20 20:50:00
5:50 PM,57.2,55.4,94,29.92,2.5,Calm,Calm,-,N/A,Rain,Light Rain,0,2013-03-20 21:50:00
6:10 PM,57.2,55.4,94,29.91,3.0,Calm,Calm,-,N/A,Rain,Light Rain,0,2013-03-20 22:10:00
6:50 PM,57.2,55.4,94,29.93,5.0,Variable,4.6,-,N/A,Rain,Light Rain,0,2013-03-20 22:50:00
7:50 PM,55.4,55.4,100,29.87,7.0,Calm,Calm,-,N/A,,Clear,0,2013-03-20 23:50:00
8:15 PM,55.4,55.4,100,29.88,8.0,Calm,Calm,-,N/A,,Clear,0,2013-03-21 00:15:00
8:35 PM,55.4,55.4,100,29.90,9.0,Calm,Calm,-,N/A,,Clear,0,2013-03-21 00:35:00
8:55 PM,53.6,53.6,100,29.90,7.0,Calm,Calm,-,N/A,,Clear,0,2013-03-21 00:55:00
9:15 PM,53.6,53.6,100,29.89,4.0,Calm,Calm,-,N/A,,Clear,0,2013-03-21 01:15:00
9:35 PM,51.8,51.8,100,29.90,0.8,Calm,Calm,-,N/A,,Mist,0,2013-03-21 01:35:00
9:55 PM,50.0,50.0,100,29.89,1.2,Calm,Calm,-,N/A,,Clear,0,2013-03-21 01:55:00
10:15 PM,48.2,48.2,100,29.90,3.0,Calm,Calm,-,N/A,,Clear,0,2013-03-21 02:15:00
10:35 PM,48.2,48.2,100,29.90,0.5,Calm,Calm,-,N/A,Fog,Fog,0,2013-03-21 02:35:00
10:55 PM,46.4,46.4,100,29.90,0.2,Calm,Calm,-,N/A,Fog,Fog,0,2013-03-21 02:55:00
11:15 PM,48.2,48.2,100,29.90,0.2,Calm,Calm,-,N/A,Fog,Fog,0,2013-03-21 03:15:00
11:35 PM,48.2,48.2,100,29.91,0.2,Calm,Calm,-,N/A,Fog,Fog,0,2013-03-21 03:35:00
11:55 PM,46.4,46.4,100,29.91,0.5,Calm,Calm,-,N/A,Fog,Fog,0,2013-03-21 03:55:00